Ceres, California, United States (95307)
Lat: 37.59N, Lon: 120.96W
Wx Zone: CAZ019
Local Info
Past Weather Observations for Today

NOTE: This archive is for the closest National Weather Service station to Ceres. Information may differ from the station used for current weather conditions.

Click here for Long-term Archive

Time Weather Temperature Dewpoint Humidity Pressure Winds Precip Visibility
14:53
Clear
66°F / 19°C 45°F / 7°C 46% 29.89 in
(1012 mb)
NNW 12.7 mph
(NNW 20 kph)
- 10SM
13:53
Clear
64°F / 18°C 46°F / 8°C 52% 29.92 in
(1013 mb)
NW 9.2 mph
(NW 15 kph)
- 10SM
12:53
Clear
64°F / 18°C 46°F / 8°C 52% 29.95 in
(1014 mb)
Variable 5.8 mph
(Variable 9 kph)
- 10SM
11:53
Clear
61°F / 16°C 46°F / 8°C 59% 29.98 in
(1015 mb)
W 5.8 mph
(W 9 kph)
- 10SM
10:53
Clear
Hazy
54°F / 12°C 46°F / 8°C 77% 30.01 in
(1016 mb)
Calm - 6SM
10:48
Clear
Hazy
54°F / 12°C 46°F / 8°C 77% 30.01 in
(1016 mb)
Calm - 5SM
09:53
Partly Cloudy
Fog And Mist
46°F / 8°C 45°F / 7°C 93% 30.04 in
(1017 mb)
ESE 3.5 mph
(ESE 6 kph)
- 2SM
09:32
Partly Cloudy
Fog And Mist
45°F / 7°C 43°F / 6°C 93% 30.04 in
(1017 mb)
Calm - 2SM
08:53
Obscured
Fog
43°F / 6°C 41°F / 5°C 93% 30.01 in
(1016 mb)
ESE 4.6 mph
(ESE 7 kph)
- 1/2SM
07:53
Obscured
Fog
39°F / 4°C 39°F / 4°C 100% 30.04 in
(1017 mb)
SE 5.8 mph
(SE 9 kph)
- M1/4SM
06:53
Obscured
Fog
39°F / 4°C 39°F / 4°C 100% 30.01 in
(1016 mb)
Calm - 1/4SM
05:53
Obscured
Fog
39°F / 4°C 39°F / 4°C 100% 30.01 in
(1016 mb)
Calm - 1/4SM
04:53
Obscured
Fog
39°F / 4°C 39°F / 4°C 100% 30.01 in
(1016 mb)
SE 3.5 mph
(SE 6 kph)
- 1/4SM
04:37
Obscured
Fog
39°F / 4°C 39°F / 4°C 100% 30.01 in
(1016 mb)
ESE 4.6 mph
(ESE 7 kph)
- 1/4SM
04:27
Obscured
Fog And Mist
39°F / 4°C 37°F / 3°C 93% 30.01 in
(1016 mb)
ESE 5.8 mph
(ESE 9 kph)
- 3/4SM
04:25
Obscured
Fog And Mist
39°F / 4°C 39°F / 4°C 100% 30.01 in
(1016 mb)
ESE 5.8 mph
(ESE 9 kph)
- 1SM
04:18
Partly Cloudy
Fog And Mist
39°F / 4°C 39°F / 4°C 100% 30.04 in
(1017 mb)
ESE 5.8 mph
(ESE 9 kph)
- 2SM
04:02
Clear
Fog And Mist
43°F / 6°C 39°F / 4°C 87% 30.04 in
(1017 mb)
E 3.5 mph
(E 6 kph)
- 3SM
03:53
Clear
Fog And Mist
43°F / 6°C 39°F / 4°C 87% 30.04 in
(1017 mb)
E 4.6 mph
(E 7 kph)
- 1 1/2SM
02:53
Clear
Fog And Mist
43°F / 6°C 39°F / 4°C 87% 30.04 in
(1017 mb)
ESE 5.8 mph
(ESE 9 kph)
- 1 1/2SM
02:42
Clear
Fog And Mist
43°F / 6°C 39°F / 4°C 87% 30.04 in
(1017 mb)
SE 3.5 mph
(SE 6 kph)
- 1 3/4SM
01:53
Clear
Fog And Mist
45°F / 7°C 41°F / 5°C 87% 30.04 in
(1017 mb)
Calm - 2 1/2SM
01:08
Clear
Fog And Mist
43°F / 6°C 41°F / 5°C 93% 30.04 in
(1017 mb)
SE 5.8 mph
(SE 9 kph)
- 2SM
00:53
Clear
Fog And Mist
45°F / 7°C 43°F / 6°C 93% 30.04 in
(1017 mb)
ESE 5.8 mph
(ESE 9 kph)
- 4SM
Time Weather Temperature Dewpoint Humidity Pressure Winds Precip Visibility


Weather for websites

WeatherForYou.com, LLC is not responsible for any damages or problems caused by this service. Current weather conditions are obtained from the closest station including government and personal stations which may have varying degrees of accuracy. Weather forecasts are derived from the NOAA NDFD. Like all things, this site belongs to Jesus Christ... He just trusts me to maintain it. If you have any questions or comments email webmaster@weatherforyou.com

Copyright © 2015, WeatherForYou.com LLC. All rights reserved.